Weather History for KMIE - April, 2013

Change the Weather History Date:

Saturday, April 27, 2013

  Actual Average Record
Temperature  
Mean Temperature 55 °F 56 °F  
Max Temperature 68 °F 66 °F 85 °F (1986)
Min Temperature 42 °F 45 °F 28 °F (1976)
Degree Days  
Heating Degree Days 10 10  
Month to date heating degree days 356 393  
Since 1 July heating degree days 5275 5563  
Cooling Degree Days 0 1  
Month to date cooling degree days 10 10  
Year to date cooling degree days 10 11  
Growing Degree Days 6 (Base 50)    
Moisture  
Dew Point 38 °F    
Average Humidity 52    
Maximum Humidity 72    
Minimum Humidity 31    
Precipitation  
Precipitation T in 0.12 in 1.28 in (2002)
Month to date precipitation 5.40 3.30  
Year to date precipitation 12.30 10.79  
Sea Level Pressure  
Sea Level Pressure 30.21 in    
Wind  
Wind Speed 8 mph (SSE)    
Max Wind Speed 20 mph    
Max Gust Speed 25 mph    
Visibility 10 miles    
Events Rain    
T = Trace of Precipitation, MM = Missing Value Source: NWS Daily Summary

Daily Weather History Graph

Daily Weather History Graph

Search for Another Location

Airport or City:

Trip Planner

Search our weather history database for the weather conditions in past years. The results will help you decide how hot, cold, wet, or windy it might be!

Date:

Astronomy

Apr. 27, 2013 Rise Set
Actual Time 6:46 AM EDT 8:32 PM EDT
Civil Twilight 6:16 AM EDT 9:02 PM EDT
Nautical Twilight 5:41 AM EDT 9:37 PM EDT
Astronomical Twilight 5:03 AM EDT 10:15 PM EDT
Moon 11:01 PM EDT (4/27) 8:03 AM EDT (4/27)
Length of Visible Light 14h 45m
Length of Day
13h 46m
Waning Gibbous, 95% of the Moon is Illuminated
Apr 27
Waning Gibbous
May 2
Last Quarter
May 9
New
May 18
First Quarter
May 25
Full

Hourly Weather History & Observations

Time (EDT) Temp. Dew Point Humidity Pressure Visibility Wind Dir Wind Speed Gust Speed Precip Events Conditions
12:53 AM 51.1 °F 33.1 °F 50% 30.34 in 10.0 mi SSE 3.5 mph - N/A   Clear
1:53 AM 46.0 °F 34.0 °F 63% 30.34 in 10.0 mi Calm Calm - N/A   Clear
2:53 AM 44.1 °F 35.1 °F 71% 30.32 in 10.0 mi Calm Calm - N/A   Clear
3:53 AM 43.0 °F 34.0 °F 71% 30.31 in 10.0 mi Calm Calm - N/A   Clear
4:53 AM 48.9 °F 30.9 °F 50% 30.30 in 10.0 mi South 9.2 mph - N/A   Clear
5:53 AM 48.0 °F 30.0 °F 50% 30.29 in 10.0 mi SSE 4.6 mph - N/A   Clear
6:53 AM 46.9 °F 30.0 °F 52% 30.30 in 10.0 mi South 3.5 mph - N/A   Clear
7:53 AM 48.9 °F 32.0 °F 52% 30.29 in 10.0 mi SSE 3.5 mph - N/A   Clear
8:53 AM 53.1 °F 32.0 °F 45% 30.29 in 10.0 mi SE 8.1 mph - N/A   Clear
9:53 AM 57.9 °F 37.0 °F 46% 30.27 in 10.0 mi ESE 10.4 mph - N/A   Clear
10:53 AM 61.0 °F 34.0 °F 36% 30.26 in 10.0 mi ESE 10.4 mph - N/A   Clear
11:53 AM 63.0 °F 34.0 °F 34% 30.23 in 10.0 mi SE 12.7 mph 17.3 mph N/A   Clear
12:53 PM 64.9 °F 34.0 °F 32% 30.23 in 10.0 mi SSE 9.2 mph 18.4 mph N/A   Clear
1:53 PM 66.9 °F 37.0 °F 33% 30.20 in 10.0 mi SE 12.7 mph - N/A   Partly Cloudy
2:53 PM 68.0 °F 37.9 °F 33% 30.17 in 10.0 mi SSE 15.0 mph 24.2 mph N/A   Clear
3:53 PM 66.9 °F 37.9 °F 34% 30.15 in 10.0 mi SE 13.8 mph - N/A   Overcast
4:53 PM 66.0 °F 39.9 °F 38% 30.13 in 10.0 mi South 11.5 mph - N/A   Overcast
5:53 PM 64.0 °F 41.0 °F 43% 30.12 in 10.0 mi SSE 10.4 mph 19.6 mph N/A   Overcast
6:53 PM 63.0 °F 45.0 °F 52% 30.12 in 10.0 mi SSE 8.1 mph - N/A   Overcast
7:53 PM 61.0 °F 46.0 °F 58% 30.10 in 10.0 mi South 10.4 mph - N/A   Overcast
8:53 PM 59.0 °F 46.9 °F 64% 30.08 in 10.0 mi SSE 8.1 mph - 0.00 in   Overcast
9:53 PM 57.9 °F 48.0 °F 70% 30.06 in 10.0 mi SE 9.2 mph - N/A   Overcast
10:53 PM 57.0 °F 48.9 °F 74% 30.05 in 10.0 mi SSE 6.9 mph - 0.00 in Rain Light Rain
11:53 PM 57.0 °F 48.9 °F 74% 30.03 in 10.0 mi SE 8.1 mph - 0.00 in   Overcast